| time (UTC) | temp C | wind direction | speed KPH | gust KPH | rain 1hr cm | rain 24hr cm | rain mn cm | humidity % | barometer mb |
| 20260504001005 | 12 | 152 | 1.6 | 4.8 | 0.00 | 0.00 | 0.00 | 50 | 1011.6 |
| 20260504000504 | 12 | 226 | 3.2 | 8.0 | 0.00 | 0.00 | 0.00 | 50 | 1011.6 |
| 20260504000003 | 12 | 180 | 1.6 | 4.8 | 0.00 | 0.00 | 0.00 | 50 | 1011.6 |
| 20260503235503 | 12 | 202 | 1.6 | 4.8 | 0.00 | 0.00 | 0.00 | 49 | 1011.6 |
| 20260503234505 | 12 | 275 | 3.2 | 11.3 | 0.00 | 0.00 | 0.00 | 49 | 1011.7 |
| 20260503233503 | 12 | 266 | 4.8 | 12.9 | 0.00 | 0.00 | 0.00 | 48 | 1011.6 |
| 20260503233003 | 12 | 274 | 3.2 | 11.3 | 0.00 | 0.00 | 0.00 | 49 | 1011.6 |
| 20260503232504 | 12 | 256 | 3.2 | 4.8 | 0.00 | 0.00 | 0.00 | 47 | 1011.6 |
| 20260503232004 | 12 | 294 | 3.2 | 12.9 | 0.00 | 0.00 | 0.00 | 47 | 1011.6 |
| 20260503231505 | 12 | 275 | 3.2 | 8.0 | 0.00 | 0.00 | 0.00 | 47 | 1011.6 |
| 20260503231004 | 12 | 210 | 4.8 | 19.3 | 0.00 | 0.00 | 0.00 | 47 | 1011.5 |
| 20260503230504 | 12 | 168 | 6.4 | 11.3 | 0.00 | 0.00 | 0.00 | 47 | 1011.6 |
| 20260503225503 | 12 | 218 | 3.2 | 11.3 | 0.00 | 0.00 | 0.00 | 46 | 1011.7 |
| 20260503224504 | 12 | 266 | 4.8 | 8.0 | 0.00 | 0.00 | 0.00 | 44 | 1011.6 |
| 20260503224004 | 12 | 270 | 3.2 | 9.7 | 0.00 | 0.00 | 0.00 | 44 | 1011.6 |
| 20260503223504 | 12 | 272 | 4.8 | 8.0 | 0.00 | 0.00 | 0.00 | 43 | 1011.7 |
| 20260503223003 | 12 | 254 | 3.2 | 4.8 | 0.00 | 0.00 | 0.00 | 44 | 1011.6 |
| 20260503222503 | 12 | 290 | 4.8 | 9.7 | 0.00 | 0.00 | 0.00 | 43 | 1011.6 |
| 20260503222004 | 12 | 300 | 4.8 | 11.3 | 0.00 | 0.00 | 0.00 | 42 | 1011.6 |
| 20260503221503 | 13 | 255 | 6.4 | 12.9 | 0.00 | 0.00 | 0.00 | 42 | 1011.6 |
| 20260503220003 | 13 | 297 | 8.0 | 16.1 | 0.00 | 0.00 | 0.00 | 42 | 1011.6 |
| 20260503215504 | 13 | 326 | 4.8 | 16.1 | 0.00 | 0.00 | 0.00 | 41 | 1011.5 |
| 20260503215003 | 13 | 278 | 6.4 | 16.1 | 0.00 | 0.00 | 0.00 | 42 | 1011.6 |
| 20260503214503 | 13 | 227 | 4.8 | 19.3 | 0.00 | 0.00 | 0.00 | 41 | 1011.5 |
| 20260503213504 | 13 | 273 | 9.7 | 22.5 | 0.00 | 0.00 | 0.00 | 40 | 1011.4 |
| 20260503213003 | 13 | 288 | 6.4 | 20.9 | 0.00 | 0.00 | 0.00 | 40 | 1011.4 |
| 20260503212504 | 13 | 304 | 6.4 | 16.1 | 0.00 | 0.00 | 0.00 | 40 | 1011.2 |
| 20260503212003 | 13 | 284 | 9.7 | 16.1 | 0.00 | 0.00 | 0.00 | 40 | 1011.3 |
| 20260503211503 | 14 | 260 | 9.7 | 16.1 | 0.00 | 0.00 | 0.00 | 39 | 1011.2 |
| 20260503210004 | 15 | 253 | 9.7 | 19.3 | 0.00 | 0.00 | 0.00 | 37 | 1011.2 |
| 20260503205503 | 15 | 291 | 9.7 | 22.5 | 0.00 | 0.00 | 0.00 | 38 | 1011.3 |
| 20260503205003 | 15 | 289 | 9.7 | 20.9 | 0.00 | 0.00 | 0.00 | 37 | 1011.3 |
| 20260503204504 | 15 | 256 | 8.0 | 16.1 | 0.00 | 0.00 | 0.00 | 39 | 1011.3 |
| 20260503204004 | 14 | 312 | 4.8 | 20.9 | 0.00 | 0.00 | 0.00 | 40 | 1011.3 |
| 20260503203504 | 15 | 296 | 8.0 | 19.3 | 0.00 | 0.00 | 0.00 | 38 | 1011.4 |
| 20260503202504 | 15 | 252 | 4.8 | 24.1 | 0.00 | 0.00 | 0.00 | 38 | 1011.4 |
| 20260503202004 | 15 | 275 | 8.0 | 19.3 | 0.00 | 0.00 | 0.00 | 39 | 1011.4 |
| 20260503201503 | 15 | 238 | 8.0 | 19.3 | 0.00 | 0.00 | 0.00 | 39 | 1011.5 |
| 20260503201004 | 14 | 286 | 4.8 | 20.9 | 0.00 | 0.00 | 0.00 | 43 | 1011.6 |
| 20260503200503 | 13 | 261 | 8.0 | 14.5 | 0.00 | 0.00 | 0.00 | 42 | 1011.7 |
| 20260503195504 | 13 | 146 | 4.8 | 14.5 | 0.00 | 0.00 | 0.00 | 46 | 1011.8 |
| 20260503195004 | 13 | 183 | 8.0 | 19.3 | 0.00 | 0.00 | 0.00 | 44 | 1011.9 |
| 20260503194503 | 13 | 240 | 4.8 | 12.9 | 0.00 | 0.00 | 0.00 | 43 | 1012.0 |
| 20260503194004 | 13 | 181 | 6.4 | 19.3 | 0.00 | 0.00 | 0.00 | 43 | 1012.0 |
| 20260503193504 | 13 | 174 | 9.7 | 22.5 | 0.00 | 0.00 | 0.00 | 42 | 1012.0 |
| 20260503192504 | 13 | 168 | 8.0 | 22.5 | 0.00 | 0.00 | 0.00 | 43 | 1012.4 |
| 20260503192005 | 13 | 223 | 9.7 | 20.9 | 0.00 | 0.00 | 0.00 | 44 | 1012.3 |
| 20260503191004 | 13 | 281 | 6.4 | 19.3 | 0.00 | 0.00 | 0.00 | 44 | 1012.6 |
| 20260503190505 | 13 | 232 | 4.8 | 16.1 | 0.00 | 0.00 | 0.00 | 43 | 1012.6 |
| 20260503190004 | 13 | 283 | 3.2 | 20.9 | 0.00 | 0.00 | 0.00 | 45 | 1012.6 |
| 20260503185504 | 13 | 291 | 9.7 | 22.5 | 0.00 | 0.00 | 0.00 | 41 | 1012.6 |
| 20260503185003 | 13 | 288 | 6.4 | 16.1 | 0.00 | 0.00 | 0.00 | 44 | 1012.7 |
| 20260503184503 | 13 | 256 | 8.0 | 20.9 | 0.00 | 0.00 | 0.00 | 44 | 1012.8 |
| 20260503184004 | 13 | 292 | 9.7 | 20.9 | 0.00 | 0.00 | 0.00 | 44 | 1012.9 |
| 20260503183004 | 12 | 129 | 6.4 | 12.9 | 0.00 | 0.00 | 0.00 | 45 | 1012.9 |
| 20260503182503 | 12 | 193 | 8.0 | 20.9 | 0.00 | 0.00 | 0.00 | 45 | 1012.9 |
| 20260503182005 | 12 | 279 | 9.7 | 32.2 | 0.00 | 0.00 | 0.00 | 45 | 1013.1 |
| 20260503181505 | 12 | 210 | 4.8 | 14.5 | 0.00 | 0.00 | 0.00 | 47 | 1013.1 |
| 20260503181004 | 12 | 260 | 9.7 | 19.3 | 0.00 | 0.00 | 0.00 | 44 | 1013.1 |
| 20260503180503 | 12 | 193 | 8.0 | 16.1 | 0.00 | 0.00 | 0.00 | 44 | 1013.2 |
| 20260503180004 | 13 | 285 | 9.7 | 22.5 | 0.00 | 0.00 | 0.00 | 43 | 1013.2 |
| 20260503175504 | 13 | 253 | 9.7 | 22.5 | 0.00 | 0.00 | 0.00 | 45 | 1013.2 |
| 20260503175004 | 13 | 167 | 8.0 | 19.3 | 0.00 | 0.00 | 0.00 | 45 | 1013.2 |
| 20260503174504 | 13 | 263 | 8.0 | 12.9 | 0.00 | 0.00 | 0.00 | 47 | 1013.2 |
| 20260503174005 | 13 | 213 | 11.3 | 25.7 | 0.00 | 0.00 | 0.00 | 46 | 1013.2 |
| 20260503173504 | 13 | 240 | 8.0 | 24.1 | 0.00 | 0.00 | 0.00 | 47 | 1013.3 |
| 20260503172504 | 12 | 140 | 9.7 | 19.3 | 0.00 | 0.00 | 0.00 | 45 | 1013.3 |
| 20260503172004 | 12 | 164 | 9.7 | 22.5 | 0.00 | 0.00 | 0.00 | 45 | 1013.4 |
| 20260503171505 | 12 | 195 | 8.0 | 19.3 | 0.00 | 0.00 | 0.00 | 46 | 1013.5 |
| 20260503170504 | 11 | 234 | 6.4 | 19.3 | 0.00 | 0.00 | 0.00 | 47 | 1013.6 |
| 20260503151002 | 10 | 310 | 8.0 | 19.3 | 0.00 | 0.00 | 0.00 | 50 | 1014.8 |
| 20260503150502 | 10 | 296 | 8.0 | 16.1 | 0.00 | 0.00 | 0.00 | 50 | 1014.8 |
| 20260503131003 | 6 | 222 | 9.7 | 19.3 | 0.00 | 0.00 | 0.00 | 73 | 1015.2 |
| 20260503110503 | 0 | 159 | 3.2 | 4.8 | 0.00 | 0.00 | 0.00 | 91 | 1014.9 |
| 20260503090504 | -1 | 172 | 3.2 | 4.8 | 0.00 | 0.00 | 0.00 | 93 | 1014.8 |
| 20260503081503 | -1 | 167 | 3.2 | 4.8 | 0.00 | 0.00 | 0.00 | 92 | 1014.8 |
| 20260503080503 | -1 | 187 | 0.0 | 3.2 | 0.00 | 0.00 | 0.00 | 92 | 1014.9 |
| 20260503072504 | -1 | 188 | 0.0 | 0.0 | 0.00 | 0.00 | 0.00 | 91 | 1014.9 |
| 20260503072003 | -1 | 188 | 0.0 | 0.0 | 0.00 | 0.00 | 0.00 | 91 | 1014.9 |
| 20260503071503 | -1 | 188 | 0.0 | 3.2 | 0.00 | 0.00 | 0.00 | 91 | 1014.8 |
| 20260503071004 | -1 | 187 | 1.6 | 3.2 | 0.00 | 0.00 | 0.00 | 91 | 1014.8 |
| 20260503070503 | -1 | 187 | 1.6 | 4.8 | 0.00 | 0.00 | 0.00 | 91 | 1014.8 |
| 20260503054503 | 0 | 183 | 1.6 | 3.2 | 0.00 | 0.00 | 0.00 | 90 | 1015.1 |
| 20260503054004 | 0 | 184 | 1.6 | 3.2 | 0.00 | 0.00 | 0.00 | 90 | 1015.1 |
| 20260503053503 | 0 | 188 | 1.6 | 4.8 | 0.00 | 0.00 | 0.00 | 90 | 1015.1 |
| 20260503053003 | 0 | 198 | 1.6 | 4.8 | 0.00 | 0.00 | 0.00 | 90 | 1015.1 |
| 20260503052504 | 0 | 203 | 1.6 | 4.8 | 0.00 | 0.00 | 0.00 | 89 | 1015.1 |
| 20260503052003 | 0 | 205 | 3.2 | 4.8 | 0.00 | 0.00 | 0.00 | 89 | 1015.2 |
| 20260503051503 | 0 | 205 | 1.6 | 3.2 | 0.00 | 0.00 | 0.00 | 88 | 1015.2 |
| 20260503051003 | 0 | 205 | 3.2 | 3.2 | 0.00 | 0.00 | 0.00 | 88 | 1015.3 |
| 20260503050503 | 0 | 205 | 1.6 | 4.8 | 0.00 | 0.00 | 0.00 | 87 | 1015.3 |
| 20260503050003 | 0 | 205 | 1.6 | 3.2 | 0.00 | 0.00 | 0.00 | 87 | 1015.4 |
| 20260503045505 | 0 | 205 | 1.6 | 3.2 | 0.00 | 0.00 | 0.00 | 86 | 1015.4 |
| 20260503045003 | 0 | 205 | 1.6 | 3.2 | 0.00 | 0.00 | 0.00 | 86 | 1015.5 |
| 20260503044503 | 0 | 205 | 1.6 | 3.2 | 0.00 | 0.00 | 0.00 | 85 | 1015.4 |
| 20260503044005 | 0 | 205 | 1.6 | 3.2 | 0.00 | 0.00 | 0.00 | 85 | 1015.4 |
| 20260503043503 | 0 | 205 | 1.6 | 3.2 | 0.00 | 0.00 | 0.00 | 84 | 1015.5 |
| 20260503043003 | 1 | 205 | 1.6 | 4.8 | 0.00 | 0.00 | 0.00 | 84 | 1015.5 |
| 20260503042503 | 1 | 205 | 1.6 | 3.2 | 0.00 | 0.00 | 0.00 | 83 | 1015.5 |
| 20260503042003 | 1 | 205 | 1.6 | 3.2 | 0.00 | 0.00 | 0.00 | 83 | 1015.5 |
| 20260503041503 | 1 | 205 | 1.6 | 3.2 | 0.00 | 0.00 | 0.00 | 82 | 1015.5 |
| 20260503041004 | 1 | 206 | 1.6 | 3.2 | 0.00 | 0.00 | 0.00 | 82 | 1015.6 |
| 20260503040503 | 1 | 207 | 1.6 | 3.2 | 0.00 | 0.00 | 0.00 | 82 | 1015.6 |
| 20260503040003 | 1 | 207 | 1.6 | 4.8 | 0.00 | 0.00 | 0.00 | 82 | 1015.6 |
| 20260503035503 | 1 | 229 | 1.6 | 4.8 | 0.00 | 0.00 | 0.00 | 82 | 1015.6 |
| 20260503034504 | 1 | 255 | 1.6 | 3.2 | 0.00 | 0.00 | 0.00 | 81 | 1015.6 |
| 20260503034003 | 1 | 255 | 0.0 | 0.0 | 0.00 | 0.00 | 0.00 | 81 | 1015.6 |
| 20260503033504 | 1 | 255 | 0.0 | 4.8 | 0.00 | 0.00 | 0.00 | 81 | 1015.6 |
| 20260503033003 | 1 | 259 | 1.6 | 3.2 | 0.00 | 0.00 | 0.00 | 81 | 1015.6 |
| 20260503032503 | 1 | 259 | 1.6 | 3.2 | 0.00 | 0.00 | 0.00 | 81 | 1015.6 |
| 20260503032003 | 2 | 260 | 0.0 | 3.2 | 0.00 | 0.00 | 0.00 | 80 | 1015.7 |
| 20260503031503 | 2 | 262 | 0.0 | 1.6 | 0.00 | 0.00 | 0.00 | 80 | 1015.7 |
| 20260503031003 | 2 | 262 | 0.0 | 0.0 | 0.00 | 0.00 | 0.00 | 79 | 1015.7 |
| 20260503030003 | 2 | 262 | 0.0 | 0.0 | 0.00 | 0.00 | 0.00 | 79 | 1015.8 |
| 20260503025503 | 2 | 262 | 0.0 | 0.0 | 0.00 | 0.00 | 0.00 | 78 | 1015.8 |
| 20260503025003 | 2 | 262 | 0.0 | 0.0 | 0.00 | 0.00 | 0.00 | 78 | 1015.8 |
| 20260503024003 | 2 | 262 | 0.0 | 0.0 | 0.00 | 0.00 | 0.00 | 77 | 1015.9 |
| 20260503023503 | 2 | 262 | 0.0 | 1.6 | 0.00 | 0.00 | 0.00 | 77 | 1015.9 |
| 20260503022503 | 2 | 262 | 0.0 | 0.0 | 0.00 | 0.00 | 0.00 | 76 | 1016.0 |
| 20260503022003 | 2 | 262 | 0.0 | 0.0 | 0.00 | 0.00 | 0.00 | 75 | 1016.0 |
| 20260503021505 | 2 | 262 | 0.0 | 0.0 | 0.00 | 0.00 | 0.00 | 75 | 1016.0 |
| 20260503020503 | 2 | 264 | 0.0 | 3.2 | 0.00 | 0.00 | 0.00 | 74 | 1016.1 |
| 20260503020003 | 2 | 264 | 1.6 | 3.2 | 0.00 | 0.00 | 0.00 | 74 | 1016.1 |
| 20260503015505 | 2 | 264 | 3.2 | 4.8 | 0.00 | 0.00 | 0.00 | 74 | 1016.0 |
| 20260503015003 | 2 | 282 | 3.2 | 4.8 | 0.00 | 0.00 | 0.00 | 74 | 1016.0 |
| 20260503014503 | 2 | 271 | 0.0 | 4.8 | 0.00 | 0.00 | 0.00 | 74 | 1015.9 |
| 20260503013505 | 2 | 270 | 1.6 | 3.2 | 0.00 | 0.00 | 0.00 | 73 | 1016.0 |
| 20260503013003 | 2 | 279 | 3.2 | 4.8 | 0.00 | 0.00 | 0.00 | 73 | 1015.9 |
| 20260503012503 | 2 | 269 | 3.2 | 4.8 | 0.00 | 0.00 | 0.00 | 73 | 1016.0 |
| 20260503012004 | 2 | 283 | 1.6 | 8.0 | 0.00 | 0.00 | 0.00 | 73 | 1015.9 |
| 20260503011504 | 2 | 255 | 1.6 | 4.8 | 0.00 | 0.00 | 0.00 | 72 | 1015.9 |
| 20260503010504 | 2 | 307 | 4.8 | 8.0 | 0.00 | 0.00 | 0.00 | 72 | 1015.9 |
| 20260503005503 | 2 | 266 | 3.2 | 9.7 | 0.00 | 0.00 | 0.00 | 71 | 1015.8 |
| 20260503005003 | 2 | 281 | 3.2 | 9.7 | 0.00 | 0.00 | 0.00 | 71 | 1015.8 |
| 20260503004504 | 2 | 276 | 4.8 | 9.7 | 0.00 | 0.00 | 0.00 | 71 | 1015.8 |
| 20260503004003 | 2 | 297 | 3.2 | 8.0 | 0.00 | 0.00 | 0.00 | 71 | 1015.7 |
| 20260503003503 | 2 | 313 | 3.2 | 8.0 | 0.00 | 0.00 | 0.00 | 71 | 1015.6 |
| 20260503003004 | 2 | 290 | 4.8 | 9.7 | 0.00 | 0.00 | 0.00 | 71 | 1015.6 |
| 20260503002004 | 3 | 268 | 3.2 | 12.9 | 0.00 | 0.00 | 0.00 | 70 | 1015.6 |